Domov               UVHVVR             MKGP            O straneh              
ZDRAVSTVENO VARSTVO RASTLIN
  MREŽA AGROMET. POSTAJ
 ► PROGNOSTIČNA OBVESTILA
AGROMETEOROLOŠKI PODATKI -
ARSO
OBVLADOVANJE TVEGANJ ZARADI
NEUGODNIH VREMENSKIH RAZMER
  ► NARAVNE NESREČE
  ► SUŠA/MOČA
  ► NAMAKANJE
  ► ŽLED (gozdarstvo)
KARTOGRAFSKI PRIKAZI
SPLETNE POVEZAVE
PROJEKTI IN PUBLIKACIJE

AGROMETEOROLOŠKA MREŽA: VREMENSKE POSTAJE IN FENOLOŠKA OPAZOVANJA

Pregled podatkov za lokacijo Artiče, meteorološka postaja 42800

Pregled senzorjev na lokaciji

ID Ime Zadnja
vrednost
Datum
zadnje
spremembe
Tip
senzorja
2446 Temperatura 2 m ( °C) 16,12 °C 19.8.2017 05:00 50YA
2447 Relativna vlaga 2 m (% RH) 90,56 % RH 19.8.2017 05:00 50YA
2448 Omočenost lista (U) 1 U 19.8.2017 05:00 A730WET
3778 Padavine 0.2 mm (mm) 0 mm 19.8.2017 05:00 Rain-O-Matic

Pregled podatkov zadnjih 24 ur

Zap.
št.
Datum in čas Artiče
Omočenost
lista
Padavine
0.2
mm
Relativna
vlaga
2
m
Temperatura
2
m
0 19.8.2017 04:00 1 0 90,56 16,12
1 19.8.2017 03:30 0 0 89,25 16,07
2 19.8.2017 03:00 0 0 80,04 17,15
3 19.8.2017 02:30 0 0 78,6 17,39
4 19.8.2017 02:00 0 0 79,46 17,28
5 19.8.2017 01:30 0 0 76,25 17,9
6 19.8.2017 01:00 0 0 73,49 18,43
7 19.8.2017 00:30 0 0 71,38 18,89
8 19.8.2017 00:00 0 0 68,99 19,42
9 18.8.2017 23:30 0 0 64,65 20,34
10 18.8.2017 23:00 0 0 61,3 21,13
11 18.8.2017 22:30 0 0 57,29 22,02
12 18.8.2017 22:00 0 0 61,23 21,75
13 18.8.2017 21:30 0 0 59,54 22,52
14 18.8.2017 21:00 0 0 57,66 23,33
15 18.8.2017 20:30 0 0 63,22 23,04
16 18.8.2017 20:00 0 0 64,76 23,48
17 18.8.2017 19:30 0 0 58,56 25,22
18 18.8.2017 19:00 0 0 52,14 26,76
19 18.8.2017 18:30 0 0 47,32 28,49
20 18.8.2017 18:00 0 0 40,72 30,15
21 18.8.2017 17:30 0 0 35,18 31,63
22 18.8.2017 17:00 0 0 30,73 32,31
23 18.8.2017 16:30 0 0 28,9 32,83
24 18.8.2017 16:00 0 0 30,16 32,69
25 18.8.2017 15:30 0 0 30,44 32,56
26 18.8.2017 15:00 0 0 31,8 32,48
27 18.8.2017 14:30 0 0 30,8 32,28
28 18.8.2017 14:00 0 0 32,85 32,05
29 18.8.2017 13:30 0 0 34,42 31,8
30 18.8.2017 13:00 0 0 36,33 31,48
31 18.8.2017 12:30 0 0 37,7 31,04
32 18.8.2017 12:00 0 0 40,56 30,42
33 18.8.2017 11:30 0 0 42,94 29,79
34 18.8.2017 11:00 0 0 47,04 28,93
35 18.8.2017 10:30 0 0 49,87 27,93
36 18.8.2017 10:00 0 0 54,52 26,92
37 18.8.2017 09:30 0 0 58,67 25,76
38 18.8.2017 09:00 0 0 62,53 24,85
39 18.8.2017 08:30 0 0 66,08 23,69
40 18.8.2017 08:00 0 0 72,07 22,16
41 18.8.2017 07:30 0 0 76,02 20,78
42 18.8.2017 07:00 1 0 83,02 19,17
43 18.8.2017 06:30 10 0 86,99 18,23
44 18.8.2017 06:00 10 0 98,41 16,43
© 2011 Ministrstvo za kmetijstvo, gozdarstvo in prehrano. Vse pravice pridržane.